DW5678 Weather Reports


time (UTC)temp
C
wind
direction
speed
KPH
gust
KPH
rain 1hr
cm
rain 24hr
cm
rain mn
cm
humidity
%
barometer
mb
20260505060804 15 180 3.2 8.0 0.00 0.00 0.00 63 1017.1
20260505055804 15 180 3.2 8.0 0.00 0.00 0.00 63 1017.1
20260505053804 14 180 1.6 3.2 0.00 0.00 0.00 64 1017.1
20260505052804 14 180 1.6 4.8 0.00 0.00 0.00 64 1017.1
20260505051804 14 180 0.0 1.6 0.00 0.00 0.00 64 1017.0
20260505050804 13 180 1.6 3.2 0.00 0.00 0.00 63 1016.9
20260505040804 13 180 0.0 3.2 0.00 0.00 0.00 68 1016.6
20260505035804 12 180 1.6 3.2 0.00 0.00 0.00 69 1016.6
20260505034804 12 180 0.0 1.6 0.00 0.00 0.00 69 1016.5
20260505033804 12 180 0.0 3.2 0.00 0.00 0.00 71 1016.6
20260505032804 12 180 0.0 0.0 0.00 0.00 0.00 70 1016.7
20260505030804 13 180 1.6 8.0 0.00 0.00 0.00 67 1016.6
20260505024804 12 180 1.6 3.2 0.00 0.00 0.00 72 1016.5
20260505022804 12 180 0.0 3.2 0.00 0.00 0.00 72 1016.6
20260505021804 12 180 0.0 4.8 0.00 0.00 0.00 71 1016.6
20260505020804 13 180 0.0 1.6 0.00 0.00 0.00 71 1016.5
20260505015804 13 180 0.0 3.2 0.00 0.00 0.00 70 1016.5
20260505014804 13 180 0.0 1.6 0.00 0.00 0.00 70 1016.5
20260505013804 13 180 0.0 0.0 0.00 0.00 0.00 70 1016.5
20260505012804 13 180 0.0 1.6 0.00 0.00 0.00 70 1016.6
20260505011804 13 180 0.0 3.2 0.00 0.00 0.00 70 1016.5
20260505010804 13 180 1.6 3.2 0.00 0.00 0.00 70 1016.5
20260505005804 13 180 1.6 4.8 0.00 0.00 0.00 69 1016.5
20260505004804 13 180 4.8 4.8 0.00 0.00 0.00 66 1016.5
20260505003803 13 180 0.0 4.8 0.00 0.00 0.00 66 1016.6
20260505002804 13 180 1.6 4.8 0.00 0.00 0.00 64 1016.7
20260505001804 14 180 0.0 1.6 0.00 0.00 0.00 62 1016.8
20260504235804 15 180 0.0 3.2 0.00 0.00 0.00 53 1016.7
20260504234804 15 180 0.0 1.6 0.00 0.00 0.00 57 1016.7
20260504233804 15 180 0.0 9.7 0.00 0.00 0.00 56 1016.8
20260504232804 15 180 4.8 11.3 0.00 0.00 0.00 55 1016.8
20260504231804 14 180 4.8 9.7 0.00 0.00 0.00 61 1017.0
20260504230803 14 180 3.2 4.8 0.00 0.00 0.00 66 1017.1
20260504225804 13 180 0.0 3.2 0.00 0.00 0.00 68 1017.3
20260504224804 13 180 0.0 3.2 0.00 0.00 0.00 68 1017.3
20260504223804 13 180 0.0 0.0 0.00 0.00 0.00 70 1017.3
20260504221804 13 180 0.0 0.0 0.00 0.00 0.00 69 1017.4
20260504220804 14 180 0.0 0.0 0.00 0.00 0.00 68 1017.4
20260504214804 14 180 0.0 4.8 0.00 0.00 0.00 67 1017.3
20260504213804 14 180 4.8 8.0 0.00 0.00 0.00 68 1017.3
20260504212804 14 180 3.2 4.8 0.00 0.00 0.00 66 1017.1
20260504211804 14 180 0.0 4.8 0.00 0.00 0.00 66 1017.0
20260504205803 14 180 1.6 4.8 0.00 0.00 0.00 67 1017.0
20260504204804 14 180 1.6 3.2 0.00 0.00 0.00 68 1017.0
20260504203804 14 180 1.6 4.8 0.00 0.00 0.00 68 1017.0
20260504202804 14 180 0.0 3.2 0.00 0.00 0.00 69 1017.0
20260504201803 13 180 1.6 3.2 0.00 0.00 0.00 71 1016.9
20260504200804 13 180 0.0 0.0 0.00 0.00 0.00 71 1017.0
20260504195804 13 180 0.0 1.6 0.00 0.00 0.00 70 1017.0
20260504194804 13 180 0.0 1.6 0.00 0.00 0.00 71 1016.9
20260504192804 13 180 0.0 3.2 0.00 0.00 0.00 72 1017.0
20260504191803 14 180 0.0 0.0 0.00 0.00 0.00 71 1017.0
20260504185804 14 180 0.0 0.0 0.00 0.00 0.00 69 1017.0
20260504183823 14 180 0.0 3.2 0.00 0.00 0.00 69 1016.9
20260504181804 14 180 0.0 0.0 0.00 0.00 0.00 69 1016.7
20260504180804 14 180 0.0 1.6 0.00 0.00 0.00 70 1016.7
20260504175804 14 180 0.0 1.6 0.00 0.00 0.00 68 1016.7
20260504174804 14 180 3.2 8.0 0.00 0.00 0.00 68 1016.7
20260504173804 14 180 1.6 3.2 0.00 0.00 0.00 67 1016.7
20260504172804 15 180 0.0 3.2 0.00 0.00 0.00 66 1016.8
20260504171804 15 180 0.0 0.0 0.00 0.00 0.00 65 1016.8
20260504170803 15 180 0.0 1.6 0.00 0.00 0.00 65 1016.7
20260504150804 16 180 3.2 12.9 0.00 0.00 0.00 64 1017.2
20260504140803 16 220 14.5 22.5 0.00 0.00 0.00 59 1017.0
20260504130803 17 197 9.7 16.1 0.00 0.00 0.00 52 1017.1
20260504081805 15 265 8.0 19.3 0.00 0.00 0.00 49 1019.6
20260504080804 15 267 4.8 16.1 0.00 0.00 0.00 49 1019.8